Joslin Field Magic Valley Regional Airport Twin Falls US
ICAO: KTWF
IATA: TWF
Category: Medium
Scheduled Services: Yes

Elevation: 4154 ft
TransAlt. 18000 ft.

Airport Communications:
TWIN FALLS APP/DEP:126.7
ASOS:135.025
CTAF:118.2
TWIN FALLS GND:121.7
BOISE RDO:122.25
TWIN FALLS TWR:118.2
UNICOM:122.95

KTWF Zoom In..

Runways:

(A) RW 07 length 8703 ft width 150 ft
---- / hdg 75

(B) RW 12 length 3224 ft width 75 ft
---- / hdg 120

(C) RW 25 length 8703 ft width 150 ft
ILS 108.30 / hdg 255

(D) RW 30 length 3224 ft width 75 ft
---- / hdg 300

Location; KTWF
Day. 29 / Time. 21.53 Zulu
* Altimeter: 29.98
* Temperature: 33° c. 91.4°f.
* Wind from: KTW° Speed F kn.
Dewpoint: 09° c.
Visibility: 10 Statute Miles.
Clouds: Clear (automated report).

KTWF 292153Z 33009KT 10SM CLR 33/09 A2998 RMK AO2 SLP086 T03280089


Wind From KTW°
Speed F kn.

 
 
jpsmedia worldairports.se 2020   terms of use